Year,Month,Day,Hour,Minute,Value (Times are PST for temperature in C)
2014,09,25,08,17,12.30
2014,09,25,08,18,12.30
2014,09,25,08,19,12.30
2014,09,25,08,20,12.30
2014,09,25,08,21,12.30
2014,09,25,08,22,12.30
2014,09,25,08,23,12.30
2014,09,25,08,24,12.30
2014,09,25,08,25,12.30
2014,09,25,08,26,12.30
2014,09,25,08,27,12.30
2014,09,25,08,28,12.30
2014,09,25,08,29,12.30
2014,09,25,08,30,12.30
2014,09,25,08,31,12.30
2014,09,25,08,32,12.30
2014,09,25,08,33,12.40
2014,09,25,08,34,12.40
2014,09,25,08,35,12.50
2014,09,25,08,36,12.50
2014,09,25,08,37,12.60
2014,09,25,08,38,12.60
2014,09,25,08,39,12.70
2014,09,25,08,40,12.70
2014,09,25,08,41,12.70
2014,09,25,08,42,12.70
2014,09,25,08,43,12.70
2014,09,25,08,44,12.70
2014,09,25,08,45,12.70
2014,09,25,08,46,12.70
2014,09,25,08,47,12.70
2014,09,25,08,48,12.70
2014,09,25,08,49,12.70
2014,09,25,08,50,12.70
2014,09,25,08,51,12.70
2014,09,25,08,52,12.70
2014,09,25,08,53,12.70
2014,09,25,08,54,12.70
2014,09,25,08,55,12.70
2014,09,25,08,56,12.80
2014,09,25,08,57,12.80
2014,09,25,08,58,12.80
2014,09,25,08,59,12.80
2014,09,25,09,00,12.80
2014,09,25,09,01,12.80
2014,09,25,09,02,12.80
2014,09,25,09,03,12.90
2014,09,25,09,04,12.90
2014,09,25,09,05,12.90
2014,09,25,09,06,12.90
2014,09,25,09,07,13.00
2014,09,25,09,08,13.10
2014,09,25,09,09,13.20
2014,09,25,09,10,13.30
2014,09,25,09,11,13.30
2014,09,25,09,12,13.30
2014,09,25,09,13,13.30
2014,09,25,09,14,13.30
2014,09,25,09,15,13.30
2014,09,25,09,16,13.30
2014,09,25,09,17,13.30
2014,09,25,09,18,13.30
2014,09,25,09,19,13.30
2014,09,25,09,20,13.30
2014,09,25,09,21,13.30
2014,09,25,09,22,13.30
2014,09,25,09,23,13.30
2014,09,25,09,24,13.30
2014,09,25,09,25,13.30
2014,09,25,09,26,13.30
2014,09,25,09,27,13.30
2014,09,25,09,28,13.30
2014,09,25,09,29,13.30
2014,09,25,09,30,13.30
2014,09,25,09,31,13.30
2014,09,25,09,32,13.30
2014,09,25,09,33,13.30
2014,09,25,09,34,13.40
2014,09,25,09,35,13.40
2014,09,25,09,36,13.40
2014,09,25,09,37,13.50
2014,09,25,09,38,13.50
2014,09,25,09,39,13.50
2014,09,25,09,40,13.60
2014,09,25,09,41,13.60
2014,09,25,09,42,13.60
2014,09,25,09,43,13.70
2014,09,25,09,44,13.70
2014,09,25,09,45,13.70
2014,09,25,09,46,13.70
2014,09,25,09,47,13.70
2014,09,25,09,48,13.80
2014,09,25,09,49,13.90
2014,09,25,09,50,13.90
2014,09,25,09,51,14.00
2014,09,25,09,52,14.00
2014,09,25,09,53,14.10
2014,09,25,09,54,14.10
2014,09,25,09,55,14.10
2014,09,25,09,56,14.20
2014,09,25,09,57,14.20
2014,09,25,09,58,14.20
2014,09,25,09,59,14.20
2014,09,25,10,00,14.30
2014,09,25,10,01,14.30
2014,09,25,10,02,14.40
2014,09,25,10,03,14.50
2014,09,25,10,04,14.60
2014,09,25,10,05,14.60
2014,09,25,10,06,14.70
2014,09,25,10,07,14.70
2014,09,25,10,08,14.70
2014,09,25,10,09,14.70
2014,09,25,10,10,14.70
2014,09,25,10,11,14.80
2014,09,25,10,12,14.90
2014,09,25,10,13,15.00
2014,09,25,10,14,15.20
2014,09,25,10,15,15.30
2014,09,25,10,16,15.30
2014,09,25,10,17,15.50
2014,09,25,10,18,15.60
2014,09,25,10,19,15.60
2014,09,25,10,20,15.70
2014,09,25,10,21,15.80
2014,09,25,10,22,15.80
2014,09,25,10,23,15.80
2014,09,25,10,24,15.90
2014,09,25,10,25,15.90
2014,09,25,10,26,16.10
2014,09,25,10,27,16.10
2014,09,25,10,28,16.10
2014,09,25,10,29,16.10
2014,09,25,10,30,16.10
2014,09,25,10,31,16.10
2014,09,25,10,32,15.90
2014,09,25,10,33,15.90
2014,09,25,10,34,15.90
2014,09,25,10,35,15.80
2014,09,25,10,36,15.80
2014,09,25,10,37,15.80
2014,09,25,10,38,15.80
2014,09,25,10,39,15.80
2014,09,25,10,40,15.80
2014,09,25,10,41,15.80
2014,09,25,10,42,15.80
2014,09,25,10,43,15.80
2014,09,25,10,44,15.80
2014,09,25,10,45,15.80
2014,09,25,10,46,15.90
2014,09,25,10,47,15.90
2014,09,25,10,48,15.90
2014,09,25,10,49,16.10
2014,09,25,10,50,16.10
2014,09,25,10,51,16.10
2014,09,25,10,52,16.10
2014,09,25,10,53,16.10
2014,09,25,10,54,16.10
2014,09,25,10,55,16.10
2014,09,25,10,56,16.10
2014,09,25,10,57,15.90
2014,09,25,10,58,15.90
2014,09,25,10,59,15.90
2014,09,25,11,00,15.80
2014,09,25,11,01,15.80
2014,09,25,11,02,15.90
2014,09,25,11,03,15.80
2014,09,25,11,04,15.80
2014,09,25,11,05,15.80
2014,09,25,11,06,15.90
2014,09,25,11,07,15.90
2014,09,25,11,08,15.90
2014,09,25,11,09,15.90
2014,09,25,11,10,16.10
2014,09,25,11,11,16.10
2014,09,25,11,12,16.10
2014,09,25,11,13,16.20
2014,09,25,11,14,16.20
2014,09,25,11,15,16.30
2014,09,25,11,16,16.40
2014,09,25,11,17,16.40
2014,09,25,11,18,16.40
2014,09,25,11,19,16.70
2014,09,25,11,20,16.70
2014,09,25,11,21,16.80
2014,09,25,11,22,16.90
2014,09,25,11,23,17.10
2014,09,25,11,24,17.20
2014,09,25,11,25,17.20
2014,09,25,11,26,17.30
2014,09,25,11,27,17.30
2014,09,25,11,28,17.30
2014,09,25,11,29,17.30
2014,09,25,11,30,17.40
2014,09,25,11,31,17.50
2014,09,25,11,32,17.60
2014,09,25,11,33,17.70
2014,09,25,11,34,17.80
2014,09,25,11,35,17.90
2014,09,25,11,36,17.90
2014,09,25,11,37,18.10
2014,09,25,11,38,18.20
2014,09,25,11,39,18.20
2014,09,25,11,40,18.20
2014,09,25,11,41,18.20
2014,09,25,11,42,18.20
2014,09,25,11,43,18.20
2014,09,25,11,44,18.20
2014,09,25,11,45,18.30
2014,09,25,11,46,18.30
2014,09,25,11,47,18.40
2014,09,25,11,48,18.40
2014,09,25,11,49,18.50
2014,09,25,11,50,18.60
2014,09,25,11,51,18.70
2014,09,25,11,52,18.80
2014,09,25,11,53,18.90
2014,09,25,11,54,18.90
2014,09,25,11,55,19.10
2014,09,25,11,56,19.20
2014,09,25,11,57,19.30
2014,09,25,11,58,19.40
2014,09,25,11,59,19.50
2014,09,25,12,00,19.50
2014,09,25,12,01,19.60
2014,09,25,12,02,19.60
2014,09,25,12,03,19.60
2014,09,25,12,04,19.50
2014,09,25,12,05,19.30
2014,09,25,12,06,19.20
2014,09,25,12,07,19.10
2014,09,25,12,08,18.90
2014,09,25,12,09,18.80
2014,09,25,12,10,18.80
2014,09,25,12,11,18.80
2014,09,25,12,12,18.80
2014,09,25,12,13,18.80
2014,09,25,12,14,18.80
2014,09,25,12,15,18.90
2014,09,25,12,16,18.90
2014,09,25,12,17,18.90
2014,09,25,12,18,18.90
2014,09,25,12,19,18.90
2014,09,25,12,20,19.10
2014,09,25,12,21,19.10
2014,09,25,12,22,19.10
2014,09,25,12,23,19.20
2014,09,25,12,24,19.20
2014,09,25,12,25,19.30
2014,09,25,12,26,19.50
2014,09,25,12,27,19.50
2014,09,25,12,28,19.70
2014,09,25,12,29,19.80
2014,09,25,12,30,19.80
2014,09,25,12,31,19.90
2014,09,25,12,32,19.90
2014,09,25,12,33,19.90
2014,09,25,12,34,19.90
2014,09,25,12,35,19.90
2014,09,25,12,36,19.90
2014,09,25,12,37,19.90
2014,09,25,12,38,19.90
2014,09,25,12,39,19.90
2014,09,25,12,40,19.90
2014,09,25,12,41,19.90
2014,09,25,12,42,19.90
2014,09,25,12,43,20.10
2014,09,25,12,44,20.10
2014,09,25,12,45,20.10
2014,09,25,12,46,20.10
2014,09,25,12,47,20.20
2014,09,25,12,48,20.10
2014,09,25,12,49,20.10
2014,09,25,12,50,19.90
2014,09,25,12,51,19.80
2014,09,25,12,52,19.70
2014,09,25,12,53,19.60
2014,09,25,12,54,19.60
2014,09,25,12,55,19.50
2014,09,25,12,56,19.50
2014,09,25,12,57,19.30
2014,09,25,12,58,19.30
2014,09,25,12,59,19.30
2014,09,25,13,00,19.30
2014,09,25,13,01,19.30
2014,09,25,13,02,19.40
2014,09,25,13,03,19.40
2014,09,25,13,04,19.50
2014,09,25,13,05,19.60
2014,09,25,13,06,19.60
2014,09,25,13,07,19.70
2014,09,25,13,08,19.70
2014,09,25,13,09,19.70
2014,09,25,13,10,19.70
2014,09,25,13,11,19.80
2014,09,25,13,12,19.80
2014,09,25,13,13,19.90
2014,09,25,13,14,19.90
2014,09,25,13,15,20.10
2014,09,25,13,16,20.10
2014,09,25,13,17,20.10
2014,09,25,13,18,20.20
2014,09,25,13,19,20.20
2014,09,25,13,20,20.30
2014,09,25,13,21,20.40
2014,09,25,13,22,20.50
2014,09,25,13,23,20.60
2014,09,25,13,24,20.70
2014,09,25,13,25,20.70
2014,09,25,13,26,20.70
2014,09,25,13,27,20.80
2014,09,25,13,28,20.80
2014,09,25,13,29,20.80
2014,09,25,13,30,20.80
2014,09,25,13,31,20.80
2014,09,25,13,32,20.90
2014,09,25,13,33,20.90
2014,09,25,13,34,20.80
2014,09,25,13,35,20.80
2014,09,25,13,36,20.70
2014,09,25,13,37,20.60
2014,09,25,13,38,20.60
2014,09,25,13,39,20.60
2014,09,25,13,40,20.50
2014,09,25,13,41,20.40
2014,09,25,13,42,20.30
2014,09,25,13,43,20.20
2014,09,25,13,44,20.20
2014,09,25,13,45,20.10
2014,09,25,13,46,20.10
2014,09,25,13,47,19.90
2014,09,25,13,48,19.90
2014,09,25,13,49,19.90
2014,09,25,13,50,19.80
2014,09,25,13,51,19.80
2014,09,25,13,52,19.70
2014,09,25,13,53,19.70
2014,09,25,13,54,19.60
2014,09,25,13,55,19.60
2014,09,25,13,56,19.60
2014,09,25,13,57,19.50
2014,09,25,13,58,19.50
2014,09,25,13,59,19.50
2014,09,25,14,00,19.40
2014,09,25,14,01,19.40
2014,09,25,14,02,19.40
2014,09,25,14,03,19.40
2014,09,25,14,04,19.40
2014,09,25,14,05,19.40
2014,09,25,14,06,19.40
2014,09,25,14,07,19.40
2014,09,25,14,08,19.40
2014,09,25,14,09,19.40
2014,09,25,14,10,19.40
2014,09,25,14,44,14.40
2014,09,25,14,45,14.40
2014,09,25,14,46,14.40
2014,09,25,14,47,14.30
2014,09,25,14,48,14.40
2014,09,25,14,49,14.30
2014,09,25,14,50,14.40
2014,09,25,14,51,14.40
2014,09,25,14,52,14.40
2014,09,25,14,53,14.40
2014,09,25,14,54,14.50
2014,09,25,14,55,14.50
2014,09,25,14,56,14.60
2014,09,25,14,57,14.60
2014,09,25,14,58,14.70
2014,09,25,14,59,14.80
2014,09,25,15,00,14.80
2014,09,25,15,01,14.90
2014,09,25,15,02,15.00
2014,09,25,15,03,15.10
2014,09,25,15,04,15.20
2014,09,25,15,05,15.30
2014,09,25,15,06,15.30
2014,09,25,15,07,15.50
2014,09,25,15,08,15.60
2014,09,25,15,09,15.70
2014,09,25,15,10,15.80
2014,09,25,15,11,15.80
2014,09,25,15,12,15.80
2014,09,25,15,13,15.80
2014,09,25,15,14,15.90
2014,09,25,15,15,16.10
2014,09,25,15,16,16.10
2014,09,25,15,17,16.20
2014,09,25,15,18,16.30
2014,09,25,15,19,16.40
2014,09,25,15,20,16.30
2014,09,25,15,21,16.20
2014,09,25,15,22,16.20
2014,09,25,15,23,16.20
2014,09,25,15,24,16.20
2014,09,25,15,25,16.10
2014,09,25,15,26,16.10
2014,09,25,15,27,16.10
2014,09,25,15,28,16.10
2014,09,25,15,29,16.10
2014,09,25,15,30,16.10
2014,09,25,15,31,16.20
2014,09,25,15,32,16.10
2014,09,25,15,33,16.20
2014,09,25,15,34,16.20
2014,09,25,15,35,16.20
2014,09,25,15,36,16.20
2014,09,25,15,37,16.20
2014,09,25,15,38,16.20
2014,09,25,15,39,16.30
2014,09,25,15,40,16.30
2014,09,25,15,41,16.30
2014,09,25,15,42,16.40
2014,09,25,15,43,16.40
2014,09,25,15,44,16.40
2014,09,25,15,45,16.60
2014,09,25,15,46,16.70
2014,09,25,15,47,16.70
2014,09,25,15,48,16.70
2014,09,25,15,49,16.80
2014,09,25,15,50,16.80
2014,09,25,15,51,16.90
2014,09,25,15,52,16.90
2014,09,25,15,53,16.90
2014,09,25,15,54,16.90
2014,09,25,15,55,16.90
2014,09,25,15,56,16.80
2014,09,25,15,57,16.80
2014,09,25,15,58,16.70
2014,09,25,15,59,16.70
2014,09,25,16,00,16.70
2014,09,25,16,01,16.70
2014,09,25,16,02,16.70
2014,09,25,16,03,16.70
2014,09,25,16,04,16.70
2014,09,25,16,05,16.70
2014,09,25,16,06,16.70
2014,09,25,16,07,16.70
2014,09,25,16,08,16.70
2014,09,25,16,09,16.80
2014,09,25,16,10,16.90
2014,09,25,16,11,17.00
2014,09,25,16,12,17.00
2014,09,25,16,13,17.10
2014,09,25,16,14,17.20
2014,09,25,16,15,17.30
2014,09,25,16,16,17.30
2014,09,25,16,17,17.40
2014,09,25,16,18,17.40
2014,09,25,16,19,17.40
2014,09,25,16,20,17.40
2014,09,25,16,21,17.30
2014,09,25,16,22,17.30
2014,09,25,16,23,17.30
2014,09,25,16,24,17.30
2014,09,25,16,25,17.30
2014,09,25,16,26,17.30
2014,09,25,16,27,17.30
2014,09,25,16,28,17.30
2014,09,25,16,29,17.30
2014,09,25,16,30,17.30
2014,09,25,16,31,17.30
2014,09,25,16,32,17.30
2014,09,25,16,33,17.30
2014,09,25,16,34,17.40
2014,09,25,16,35,17.50
2014,09,25,16,36,17.60
2014,09,25,16,37,17.70
2014,09,25,16,38,17.70
2014,09,25,16,39,17.80
2014,09,25,16,40,17.90
2014,09,25,16,41,17.90
2014,09,25,16,42,17.90
2014,09,25,16,43,17.90
2014,09,25,16,44,17.90
2014,09,25,16,45,17.90
2014,09,25,16,46,17.90
2014,09,25,16,47,17.90
2014,09,25,16,48,18.10
2014,09,25,16,49,18.10
2014,09,25,16,50,18.10
2014,09,25,16,51,18.20
2014,09,25,16,52,18.20
2014,09,25,16,53,18.20
2014,09,25,16,54,18.20
2014,09,25,16,55,18.20
2014,09,25,16,56,18.20
2014,09,25,16,57,18.20
2014,09,25,16,58,18.30
2014,09,25,16,59,18.30
2014,09,25,17,00,18.30
2014,09,25,17,01,18.40
2014,09,25,17,02,18.40
2014,09,25,17,03,18.50
2014,09,25,17,04,18.60
2014,09,25,17,05,18.50
2014,09,25,17,06,18.50
2014,09,25,17,07,18.50
2014,09,25,17,08,18.50
2014,09,25,17,09,18.50
2014,09,25,17,10,18.50
2014,09,25,17,11,18.50
2014,09,25,17,12,18.40
2014,09,25,17,13,18.40
2014,09,25,17,14,18.40
2014,09,25,17,15,18.40
2014,09,25,17,16,18.40
2014,09,25,17,17,18.40
2014,09,25,17,18,18.40
2014,09,25,17,19,18.40
2014,09,25,17,20,18.30
2014,09,25,17,21,18.30
2014,09,25,17,22,18.30
2014,09,25,17,23,18.30
2014,09,25,17,24,18.20
2014,09,25,17,25,18.20
2014,09,25,17,26,18.10
2014,09,25,17,27,18.10
2014,09,25,17,28,17.90
2014,09,25,17,29,17.90
2014,09,25,17,30,17.90
2014,09,25,17,31,17.90
2014,09,25,17,32,17.90
2014,09,25,17,33,17.90
2014,09,25,17,34,17.90
2014,09,25,17,35,17.90
2014,09,25,17,36,17.80
2014,09,25,17,37,17.80
2014,09,25,17,38,17.70
2014,09,25,17,39,17.60
2014,09,25,17,40,17.50
2014,09,25,17,41,17.50
2014,09,25,17,42,17.40
2014,09,25,17,43,17.30
2014,09,25,17,44,17.30
2014,09,25,17,45,17.30
2014,09,25,17,46,17.20
2014,09,25,17,47,17.20
2014,09,25,17,48,17.10
2014,09,25,17,49,17.10
2014,09,25,17,50,17.00
2014,09,25,17,51,17.00
2014,09,25,17,52,16.90
2014,09,25,17,53,16.90
2014,09,25,17,54,16.90
2014,09,25,17,55,16.90
2014,09,25,17,56,16.90
2014,09,25,17,57,16.90
2014,09,25,17,58,16.90
2014,09,25,17,59,16.90
2014,09,25,18,00,16.90
2014,09,25,18,01,16.90
2014,09,25,18,02,16.90
